+ View the NASA Portal
+ Center for Near-Earth Object Studies
IMPORTANT:
The SSD Announcement email list is now available. Major changes are coming in the near future, including possible hostname and/or URL changes. To be notified of such changes, subscribe to this email list.
Please visit
this page
for more details.
Don't show this message again
JPL Small-Body Database Browser
Search:
[
help
]
437777 (2015 BH133)
Classification:
Main-belt Asteroid
SPK-ID:
2437777
[
Ephemeris
|
Orbit Diagram
|
Orbital Elements
|
Mission Design
|
Physical Parameters
|
Discovery Circumstances
]
[ show orbit diagram ]
Orbital Elements at Epoch 2458600.5 (2019-Apr-27.0) TDB
Reference:
JPL 12
(heliocentric ecliptic J2000)
Element
Value
Uncertainty (1-sigma)
Units
e
.07663019900578004
7.9694e-08
a
2.778570101105303
4.4043e-08
au
q
2.565647721306093
2.0529e-07
au
i
4.829943664557623
1.2227e-05
deg
node
353.0896717823491
8.6774e-05
deg
peri
277.5601690993179
0.00012203
deg
M
197.6376356433618
9.0537e-05
deg
t
p
2459363.480309887216
(2021-May-28.98030989)
0.00043212
TDB
period
1691.727714410854
4.63
4.0223e-05
1.101e-07
d
yr
n
.2128002023808958
5.0596e-09
deg/d
Q
2.991492480904513
4.7418e-08
au
Orbit Determination Parameters
# obs. used (total)
73
data-arc span
7945 days (21.75 yr)
first obs. used
1997-03-10
last obs. used
2018-12-10
planetary ephem.
DE431
SB-pert. ephem.
SB431-N16
condition code
0
norm. resid. RMS
.62785
source
ORB
producer
Otto Matic
solution date
2019-Jul-14 16:19:41
Additional Information
Earth MOID
= 1.55482 au
Jupiter MOID
= 2.09536 au
T_jup
= 3.325
[ show covariance matrix ]
[
Ephemeris
|
Orbit Diagram
|
Orbital Elements
|
Mission Design
|
Physical Parameters
|
Discovery Circumstances
]
Physical Parameter Table
Parameter
Symbol
Value
Units
Sigma
Reference
Notes
absolute magnitude
H
17.1
n/a
MPO419197
437777 (2015 BH133)
Discovered 1997-Mar-10 by Spacewatch at Kitt Peak
Reference:
Last Updated:
2015-06-04
Alternate Designations
2015 BH133
= 2006 HY129 = 2011 FR101
[
Ephemeris
|
Orbit Diagram
|
Orbital Elements
|
Mission Design
|
Physical Parameters
|
Discovery Circumstances
]
2019-Dec-10 19:04 UT
(server date/time)
Site Manager:
Ryan S. Park
Webmaster
:
Alan B. Chamberlin